Farmington, NM

2:06 AM MST on December 15, 2017 (GMT -0700)
Four Corners Regional

Weather History for KFMN - October, 2011

Change the Weather History Date:

Tuesday, October 25, 2011

  Actual Average Record
Temperature  
Mean Temperature 54 °F -  
Max Temperature 64 °F 60 °F 78 °F (2014)
Min Temperature 46 °F 33 °F -27 °F (1997)
Degree Days  
Heating Degree Days 11    
Growing Degree Days 4 (Base 50)    
Moisture  
Dew Point 38 °F    
Average Humidity 59    
Maximum Humidity 97    
Minimum Humidity 26    
Precipitation  
Precipitation 0.06 in - - ()
Sea Level Pressure  
Sea Level Pressure 30.01 in    
Wind  
Wind Speed 8 mph (SSE)    
Max Wind Speed 14 mph    
Max Gust Speed 20 mph    
Visibility 10 miles    
Events Rain    
Averages and records for this station are not official NWS values.
T = Trace of Precipitation, MM = Missing Value Source: NWS Daily Summary

Daily Weather History Graph

Daily Weather History Graph

Search for Another Location

Airport or City:

Trip Planner

Search our weather history database for the weather conditions in past years. The results will help you decide how hot, cold, wet, or windy it might be!

Date:

Astronomy

Oct. 25, 2011 Rise Set
Actual Time 7:29 AM MDT 6:23 PM MDT
Civil Twilight 7:03 AM MDT 6:50 PM MDT
Nautical Twilight 6:32 AM MDT 7:20 PM MDT
Astronomical Twilight 6:02 AM MDT 7:50 PM MDT
Moon 6:06 AM MDT (10/25) 5:27 PM MDT (10/25)
Length of Visible Light 11h 47m
Length of Day
10h 54m
Waning Crescent, 2% of the Moon is Illuminated
Oct 25
Waning Crescent
Oct 26
New
Nov 2
First Quarter
Nov 10
Full
Nov 18
Last Quarter

Hourly Weather History & Observations

Time (MDT) Temp. Dew Point Humidity Pressure Visibility Wind Dir Wind Speed Gust Speed Precip Events Conditions
1:53 AM 53.1 °F 21.0 °F 29% 30.01 in 10.0 mi SE 5.8 mph - N/A   Overcast
2:53 AM 59.0 °F 25.0 °F 27% 29.96 in 10.0 mi SW 10.4 mph - N/A   Overcast
3:53 AM 57.9 °F 23.0 °F 26% 29.96 in 10.0 mi SSE 5.8 mph - N/A   Overcast
4:53 AM 57.0 °F 23.0 °F 27% 29.99 in 10.0 mi WNW 3.5 mph - N/A   Overcast
5:53 AM 57.0 °F 25.0 °F 29% 30.00 in 10.0 mi South 4.6 mph - N/A   Overcast
6:53 AM 57.0 °F 26.1 °F 30% 30.01 in 10.0 mi West 3.5 mph - N/A   Overcast
7:53 AM 60.1 °F 33.1 °F 36% 30.03 in 10.0 mi SW 12.7 mph 19.6 mph N/A   Overcast
8:53 AM 57.0 °F 39.9 °F 53% 30.08 in 10.0 mi SW 13.8 mph 18.4 mph 0.00 in Rain Light Rain
9:53 AM 53.1 °F 44.1 °F 71% 30.10 in 10.0 mi SSW 11.5 mph - 0.01 in Rain Light Rain
10:53 AM 54.0 °F 46.9 °F 77% 30.12 in 10.0 mi SW 9.2 mph - 0.00 in   Mostly Cloudy
11:53 AM 54.0 °F 46.9 °F 77% 30.12 in 10.0 mi SSE 6.9 mph - 0.00 in   Mostly Cloudy
12:53 PM 57.9 °F 46.9 °F 67% 30.07 in 10.0 mi SE 8.1 mph - N/A   Scattered Clouds
1:53 PM 61.0 °F 43.0 °F 52% 30.01 in 10.0 mi SSE 11.5 mph - N/A   Partly Cloudy
2:53 PM 62.1 °F 43.0 °F 50% 29.98 in 10.0 mi South 9.2 mph 17.3 mph N/A   Scattered Clouds
3:53 PM 61.0 °F 42.1 °F 50% 29.95 in 10.0 mi SW 5.8 mph 17.3 mph N/A   Overcast
4:53 PM 62.1 °F 42.1 °F 48% 29.92 in 10.0 mi SSE 8.1 mph - N/A   Overcast
5:53 PM 61.0 °F 39.9 °F 46% 29.91 in 10.0 mi SSE 6.9 mph - N/A   Clear
7:30 PM 48.2 °F 44.6 °F 87% 30.06 in 7.0 mi North 9.2 mph - 0.05 in Rain Light Rain
7:53 PM 48.0 °F 45.0 °F 89% 29.98 in 10.0 mi NE 6.9 mph - 0.05 in   Mostly Cloudy
8:53 PM 48.0 °F 46.0 °F 93% 29.97 in 10.0 mi ESE 6.9 mph - N/A   Partly Cloudy
9:53 PM 48.0 °F 46.0 °F 93% 29.98 in 10.0 mi ESE 8.1 mph - N/A   Scattered Clouds
10:53 PM 46.9 °F 46.0 °F 97% 29.98 in 10.0 mi East 4.6 mph - N/A   Scattered Clouds
11:53 PM 46.9 °F 45.0 °F 93% 29.96 in 10.0 mi East 9.2 mph - N/A   Clear